Location: Ammerl�gen
(47.2167°N, 9.6000°E)
Time: 12:39:49
(UTC+00:00)

RS-15 - Pass Details

Date: 09 December 2021
Orbit: 1882 x 2162 km, 64.8° (Epoch: 22 January)

Event Time Altitude Azimuth Distance (km) Brightness Sun altitude
Exits shadow 01:58:31 59° 60° (ENE) 2,336 8.3 -49.1°
Drops below altitude 10° 02:07:52 10° 39° (NE) 4,640 10.4 -47.6°
Sets 02:11:22 0° 38° (NE) 5,667 11.0 -47.1°
